HG2HNB-13 Weather Reports


Display with metric or nautical units.
time (UTC)temp
F
wind
direction
speed
MPH
gust
MPH
rain 1hr
in
rain 24hr
in
rain mn
in
humidity
%
barometer
mb
20260507171634 64 225 2.0 3.0 0.00 0.00 0.00 50 1013.6
20260507170630 64 225 4.0 6.0 0.00 0.00 0.00 50 1013.4
20260507165754 64 225 4.0 8.0 0.00 0.00 0.00 50 1013.1
20260507164610 64 225 4.0 7.0 0.00 0.00 0.00 51 1013.2
20260507163634 64 180 6.0 8.0 0.00 0.00 0.00 51 1013.0
20260507162610 65 180 5.0 6.0 0.00 0.00 0.00 51 1013.0
20260507161714 65 225 5.0 7.0 0.00 0.00 0.00 53 1013.0
20260507160610 63 225 4.0 4.0 0.00 0.00 0.00 59 1013.1
20260507155714 62 0 3.0 4.0 0.00 0.00 0.00 57 1013.0
20260507154610 62 225 1.0 2.0 0.00 0.00 0.00 56 1013.2
20260507153634 62 225 4.0 4.0 0.00 0.00 0.00 56 1013.1
20260507152650 62 180 4.0 5.0 0.00 0.00 0.00 55 1013.1
20260507151714 62 135 3.0 4.0 0.00 0.00 0.00 54 1013.2
20260507150610 62 225 4.0 7.0 0.00 0.00 0.00 55 1013.1
20260507145714 63 225 3.0 4.0 0.00 0.00 0.00 55 1013.4
20260507144630 63 180 6.0 8.0 0.00 0.00 0.00 53 1013.4
20260507143634 63 225 6.0 8.0 0.00 0.00 0.00 54 1013.3
20260507142650 63 180 4.0 5.0 0.00 0.00 0.00 56 1013.2
20260507141654 64 180 5.0 7.0 0.00 0.00 0.00 52 1013.4
20260507140610 63 225 7.0 8.0 0.00 0.00 0.00 54 1013.7
20260507135714 64 270 7.0 8.0 0.00 0.00 0.00 50 1013.6
20260507134630 64 180 8.0 10.0 0.00 0.00 0.00 50 1013.5
20260507133654 65 225 8.0 9.0 0.00 0.00 0.00 52 1013.5
20260507132630 64 225 4.0 8.0 0.00 0.00 0.00 50 1013.7
20260507131634 64 315 4.0 5.0 0.00 0.00 0.00 50 1013.5
20260507130610 64 225 8.0 10.0 0.00 0.00 0.00 50 1013.8
20260507124650 64 248 6.0 8.0 0.00 0.00 0.00 52 1013.7
20260507123714 64 225 8.0 10.0 0.00 0.00 0.00 50 1013.9
20260507122630 63 225 8.0 11.0 0.00 0.00 0.00 53 1013.9
20260507121634 63 225 11.0 13.0 0.00 0.00 0.00 52 1014.1
20260507120610 63 225 9.0 12.0 0.00 0.00 0.00 53 1013.9
20260507115634 62 135 8.0 11.0 0.00 0.00 0.00 53 1013.9
20260507114610 63 180 8.0 12.0 0.00 0.00 0.00 55 1014.0
20260507113654 63 225 8.0 11.0 0.00 0.00 0.00 56 1013.8
20260507112610 63 338 11.0 14.0 0.00 0.00 0.00 59 1013.9
20260507111714 63 225 10.0 15.0 0.00 0.00 0.00 58 1013.9
20260507110630 63 180 8.0 12.0 0.00 0.00 0.00 58 1014.1
20260507105654 64 225 10.0 16.0 0.00 0.00 0.00 53 1014.1
20260507104650 63 225 8.0 10.0 0.00 0.00 0.00 58 1014.3
20260507103654 63 225 10.0 11.0 0.00 0.00 0.00 55 1014.5
20260507102630 63 225 8.0 10.0 0.00 0.00 0.00 53 1014.2
20260507101634 64 225 8.0 11.0 0.00 0.00 0.00 49 1014.3
20260507100630 64 225 8.0 12.0 0.00 0.00 0.00 50 1014.1
20260507095654 64 225 12.0 14.0 0.00 0.00 0.00 50 1014.2
20260507094630 64 225 8.0 11.0 0.00 0.00 0.00 49 1014.2
20260507093654 64 225 8.0 12.0 0.00 0.00 0.00 48 1014.1
20260507092610 64 225 5.0 9.0 0.00 0.00 0.00 49 1013.9
20260507091734 63 225 10.0 12.0 0.00 0.00 0.00 51 1013.7
20260507090610 64 270 11.0 14.0 0.00 0.00 0.00 47 1013.7
20260507085634 65 225 12.0 17.0 0.00 0.00 0.00 46 1013.7
20260507084610 65 225 10.0 13.0 0.00 0.00 0.00 45 1013.4
20260507083734 65 180 10.0 13.0 0.00 0.00 0.00 47 1013.4
20260507082610 64 270 8.0 12.0 0.00 0.00 0.00 46 1013.2
20260507081654 64 225 6.0 9.0 0.00 0.00 0.00 46 1013.2
20260507080630 64 180 7.0 10.0 0.00 0.00 0.00 46 1013.1
20260507075714 64 180 8.0 9.0 0.00 0.00 0.00 46 1013.2
20260507074650 63 225 6.0 8.0 0.00 0.00 0.00 50 1013.2
20260507073714 63 135 7.0 8.0 0.00 0.00 0.00 50 1013.0
20260507072610 63 113 6.0 10.0 0.00 0.00 0.00 51 1013.1
20260507071714 63 180 6.0 9.0 0.00 0.00 0.00 51 1013.0
20260507070611 62 225 6.0 8.0 0.00 0.00 0.00 51 1013.0
20260507065634 62 270 8.0 8.0 0.00 0.00 0.00 51 1012.9
20260507064614 62 225 8.0 10.0 0.00 0.00 0.00 51 1012.8
20260507063634 62 225 4.0 7.0 0.00 0.00 0.00 52 1012.5
20260507062610 61 225 8.0 8.0 0.00 0.00 0.00 51 1012.6
20260507061654 61 180 8.0 11.0 0.00 0.00 0.00 52 1012.6
20260507060610 61 270 8.0 11.0 0.00 0.00 0.00 52 1012.5
20260507055714 61 225 10.0 11.0 0.00 0.00 0.00 53 1012.5
20260507054610 60 180 4.0 5.0 0.00 0.00 0.00 56 1012.4
20260507053714 60 180 3.0 4.0 0.00 0.00 0.00 55 1012.1
20260507052610 60 225 4.0 5.0 0.00 0.00 0.00 55 1011.9
20260507051654 60 180 5.0 8.0 0.00 0.00 0.00 55 1011.6
20260507050610 60 180 8.0 10.0 0.00 0.00 0.00 56 1011.5
20260507045634 59 248 4.0 8.0 0.00 0.00 0.00 57 1011.7
20260507044610 59 225 5.0 7.0 0.00 0.00 0.00 56 1011.5
20260507043634 59 225 6.0 10.0 0.00 0.00 0.00 56 1011.3
20260507042300 58 225 6.0 9.0 0.00 0.00 0.00 57 1011.2
20260507041204 59 180 6.0 8.0 0.00 0.00 0.00 56 1010.9
20260507040140 59 180 5.0 7.0 0.00 0.00 0.00 56 1010.9
20260507035204 59 225 4.0 5.0 0.00 0.00 0.00 55 1010.8
20260507034120 59 180 7.0 8.0 0.00 0.00 0.00 56 1010.6
20260507033304 59 225 8.0 11.0 0.00 0.00 0.00 56 1010.6
20260507032140 59 225 6.0 8.0 0.00 0.00 0.00 57 1010.6
20260507031225 59 225 5.0 8.0 0.00 0.00 0.00 58 1010.8
20260507030241 59 225 5.0 7.0 0.00 0.00 0.00 60 1010.7
20260507025204 59 225 4.0 6.0 0.00 0.00 0.00 59 1010.8
20260507024201 59 225 5.0 7.0 0.00 0.00 0.00 58 1010.9
20260507023205 60 225 2.0 3.0 0.00 0.00 0.00 57 1010.8
20260507022140 60 270 3.0 4.0 0.00 0.00 0.00 58 1010.9
20260507020200 60 180 12.0 17.0 0.00 0.00 0.00 55 1010.5
20260507015145 60 248 11.0 15.0 0.00 0.00 0.00 55 1010.6
20260507014220 60 225 9.0 11.0 0.00 0.00 0.00 56 1010.4
20260507013145 60 270 11.0 15.0 0.00 0.00 0.00 55 1010.4
20260507012120 61 270 11.0 17.0 0.00 0.00 0.00 54 1010.5
20260507011204 61 225 11.0 14.0 0.00 0.00 0.00 54 1010.4
20260507010220 61 225 12.0 15.0 0.00 0.00 0.00 55 1010.4
20260507005144 61 225 6.0 10.0 0.00 0.00 0.00 54 1010.3
20260507004220 62 225 9.0 12.0 0.00 0.00 0.00 54 1010.4
20260507003204 61 225 8.0 11.0 0.00 0.00 0.00 54 1010.6
20260507002140 62 225 9.0 11.0 0.00 0.00 0.00 54 1010.9
20260507001244 62 225 9.0 11.0 0.00 0.00 0.00 54 1010.9
20260507000140 62 225 11.0 16.0 0.00 0.00 0.00 54 1010.9
20260506235144 62 180 15.0 18.0 0.00 0.00 0.00 54 1010.9
20260506234120 62 225 8.0 13.0 0.00 0.00 0.00 54 1011.0
20260506233144 62 180 11.0 15.0 0.00 0.00 0.00 54 1010.9
20260506232301 62 225 11.0 13.0 0.00 0.00 0.00 54 1011.1
20260506231144 62 225 7.0 8.0 0.00 0.00 0.00 54 1010.7
20260506230120 62 225 10.0 15.0 0.00 0.00 0.00 53 1010.8
20260506225145 63 270 7.0 11.0 0.00 0.00 0.00 53 1010.6
20260506224120 63 180 8.0 12.0 0.00 0.00 0.00 52 1010.8
20260506223144 63 315 11.0 13.0 0.00 0.00 0.00 52 1011.0
20260506222140 63 225 8.0 15.0 0.00 0.00 0.00 52 1010.9
20260506221145 64 225 9.0 12.0 0.00 0.00 0.00 49 1010.6
20260506220200 64 270 7.0 9.0 0.00 0.00 0.00 49 1010.7
20260506215204 64 315 5.0 6.0 0.00 0.00 0.00 49 1010.5
20260506214200 64 225 8.0 12.0 0.00 0.00 0.00 47 1010.5
20260506213144 65 225 8.0 11.0 0.00 0.00 0.00 47 1010.6
20260506212120 65 225 7.0 10.0 0.00 0.00 0.00 46 1010.7
20260506211225 65 225 12.0 15.0 0.00 0.00 0.00 46 1010.6
20260506210209 65 225 8.0 11.0 0.00 0.00 0.00 45 1010.4
20260506205144 65 225 10.0 12.0 0.00 0.00 0.00 45 1010.1
20260506204300 65 225 9.0 12.0 0.00 0.00 0.00 45 1010.0
20260506203204 65 225 9.0 13.0 0.00 0.00 0.00 45 1010.3
20260506202120 66 225 12.0 17.0 0.00 0.00 0.00 44 1009.9
20260506201224 66 203 11.0 15.0 0.00 0.00 0.00 44 1010.1
20260506200121 66 225 11.0 16.0 0.00 0.00 0.00 44 1010.0
20260506195145 66 225 7.0 10.0 0.00 0.00 0.00 43 1010.1
20260506194140 66 225 8.0 12.0 0.00 0.00 0.00 43 1010.5
20260506193205 67 180 10.0 14.0 0.00 0.00 0.00 43 1010.3
20260506192120 67 225 8.0 11.0 0.00 0.00 0.00 43 1010.3
20260506191204 67 225 8.0 13.0 0.00 0.00 0.00 43 1010.3
20260506190140 67 225 6.0 8.0 0.00 0.00 0.00 44 1010.1
20260506185144 67 225 12.0 16.0 0.00 0.00 0.00 42 1010.3
20260506184140 67 225 12.0 19.0 0.00 0.00 0.00 43 1009.9
20260506183205 67 225 12.0 17.0 0.00 0.00 0.00 42 1010.0
20260506182120 68 225 16.0 21.0 0.00 0.00 0.00 42 1009.7
20260506181144 68 180 15.0 21.0 0.00 0.00 0.00 42 1009.7
20260506180140 68 135 11.0 17.0 0.00 0.00 0.00 43 1009.8
20260506175204 68 225 13.0 16.0 0.00 0.00 0.00 43 1009.5
20260506174120 69 225 9.0 13.0 0.00 0.00 0.00 42 1009.6
20260506173204 69 180 12.0 15.0 0.00 0.00 0.00 42 1009.3
20260506172120 69 225 11.0 15.0 0.00 0.00 0.00 43 1009.3